Date,TemperatureHighF,TemperatureAvgF,TemperatureLowF,DewpointHighF,DewpointAvgF,DewpointLowF,HumidityHigh,HumidityAvg,HumidityLow,PressureMaxIn,PressureMinIn,WindSpeedMaxMPH,WindSpeedAvgMPH,GustSpeedMaxMPH,PrecipitationSumIn
2013-1-1,27,18,10,17,12,7,85,76,61,30.15,30.01,17,3,17,0.00
2013-1-2,34,21,12,14,8,1,71,56,37,30.23,30.13,15,5,15,0.00
2013-1-3,28,12,3,9,2,-2,80,65,43,30.24,30.10,10,2,12,0.00
2013-1-4,30,14,4,11,4,-2,79,65,43,30.10,30.00,10,2,10,0.00
2013-1-5,26,14,6,12,5,0,83,68,51,30.21,30.07,9,2,12,0.00
2013-1-6,31,17,8,14,9,2,83,70,48,30.08,29.82,13,2,13,0.00
2013-1-7,40,28,14,22,15,8,79,60,40,29.88,29.61,37,8,44,0.00
2013-1-8,45,39,27,22,18,15,69,44,32,29.99,29.62,44,17,51,0.00
2013-1-9,47,33,24,30,22,16,100,64,43,30.03,29.66,39,9,39,0.00
2013-1-10,47,30,18,27,22,14,87,73,46,29.66,29.35,28,8,39,0.00
2013-1-11,18,10,7,14,6,3,87,85,82,29.93,29.42,38,18,40,0.04
2013-1-12,13,7,1,8,3,-3,84,82,77,29.99,29.92,13,2,15,0.00
2013-1-13,14,3,-5,8,-1,-10,94,81,73,30.06,29.99,8,2,9,0.00
2013-1-14,10,4,-8,4,-2,-13,92,78,69,30.07,29.92,19,3,19,0.00
2013-1-15,21,13,8,12,8,4,86,79,65,30.11,29.98,11,3,14,0.02
2013-1-16,25,13,4,16,8,0,94,78,66,30.29,30.11,9,2,10,0.01
2013-1-17,25,13,3,16,8,-1,88,79,66,30.33,30.08,12,2,13,0.00
2013-1-18,45,26,11,22,14,6,92,65,34,30.09,29.88,32,7,35,0.01
2013-1-19,40,31,20,20,16,11,77,55,35,30.16,29.98,30,6,30,0.00
2013-1-20,40,27,12,21,16,8,83,64,36,30.28,30.04,28,6,36,0.00
2013-1-21,32,19,11,20,14,8,95,79,62,30.16,29.94,14,3,14,0.00
2013-1-22,33,21,10,20,14,7,92,75,58,30.04,29.95,14,2,15,0.00
2013-1-23,33,24,17,21,16,11,83,73,58,30.04,29.90,14,2,14,0.00
2013-1-24,54,38,15,29,21,10,82,55,35,30.01,29.80,45,14,46,0.00
2013-1-25,49,39,27,30,24,20,80,57,37,30.02,29.87,33,9,33,0.00
2013-1-26,46,32,24,29,23,19,84,71,47,29.87,29.63,11,3,12,0.00
2013-1-27,38,32,26,30,26,21,92,81,70,29.71,29.60,20,9,26,0.00
2013-1-28,35,26,18,22,17,7,92,71,50,29.74,29.63,17,4,17,0.05
2013-1-29,27,16,6,22,11,0,100,79,52,29.98,29.59,24,5,28,0.01
2013-1-30,21,16,7,18,12,3,89,84,80,29.88,29.77,10,3,10,0.00
2013-1-31,29,22,16,22,18,13,90,85,71,30.06,29.88,15,4,15,0.04
2013-2-1,41,25,15,29,20,12,100,83,62,30.16,29.93,11,2,11,0.00
2013-2-2,32,20,12,26,16,10,92,85,66,30.27,30.15,10,2,10,0.01
2013-2-3,31,20,12,22,15,9,90,82,66,30.15,29.86,21,2,29,0.00
2013-2-4,47,35,16,26,20,12,87,58,38,29.87,29.73,35,14,39,0.00
2013-2-5,40,28,20,27,21,15,85,74,55,29.87,29.69,14,2,14,0.00
2013-2-6,47,35,20,27,22,16,87,60,40,29.99,29.69,21,6,23,0.00
2013-2-7,37,25,15,24,17,11,86,73,54,30.01,29.81,15,3,15,0.00
2013-2-8,44,28,14,23,17,10,88,65,34,29.84,29.73,12,3,14,0.00
2013-2-9,40,31,23,25,22,17,83,71,55,29.76,29.64,19,7,24,0.00
2013-2-10,29,23,12,24,17,7,91,79,61,30.01,29.73,36,12,36,0.00
2013-2-11,29,15,2,17,8,-2,85,74,56,30.00,29.88,19,5,21,0.00
2013-2-12,34,19,7,17,10,3,84,70,46,30.02,29.89,13,3,13,0.00
2013-2-13,46,30,17,28,20,10,89,67,43,29.98,29.82,30,6,30,0.00
2013-2-14,32,26,22,28,20,16,90,79,59,30.25,29.97,30,6,30,0.01
2013-2-15,35,25,18,27,21,15,92,84,69,30.28,30.12,17,4,17,0.02
2013-2-16,42,26,14,28,19,12,89,76,52,30.13,29.73,17,4,17,0.00
2013-2-17,44,30,17,31,20,13,87,69,36,29.86,29.58,27,8,35,0.00
2013-2-18,37,27,17,23,18,12,88,71,45,29.99,29.86,14,5,15,0.00
2013-2-19,37,22,12,20,14,8,87,71,43,29.88,29.61,20,4,21,0.00
2013-2-20,36,25,17,21,16,11,79,69,51,29.74,29.61,22,6,22,0.00
2013-2-21,34,24,14,26,18,10,92,78,62,29.84,29.74,12,2,13,0.01
2013-2-22,36,24,11,22,14,7,92,67,40,29.87,29.60,24,6,25,0.01
2013-2-23,34,27,20,25,17,12,77,64,51,29.84,29.53,23,7,28,0.00
2013-2-24,41,29,19,21,16,10,82,60,28,30.04,29.85,23,10,25,0.02
2013-2-25,40,27,15,20,15,10,82,64,41,29.95,29.73,23,6,23,0.00
2013-2-26,42,31,20,19,13,8,68,48,29,30.12,29.80,28,7,29,0.00
2013-2-27,41,26,13,20,14,6,77,59,38,30.14,30.10,21,6,21,0.00
2013-2-28,43,31,21,20,14,8,77,50,35,30.21,30.11,19,6,21,0.00
2013-3-1,49,33,21,27,20,13,77,61,38,30.24,30.16,16,4,16,0.00
2013-3-2,54,37,23,32,26,18,87,65,40,30.21,29.81,24,5,25,0.00
2013-3-3,62,44,29,33,24,9,83,47,24,29.81,29.44,36,14,41,0.00
2013-3-4,32,25,11,15,9,1,70,52,36,30.20,29.76,36,13,44,0.00
2013-3-5,40,24,9,16,10,1,82,58,30,30.18,29.92,26,6,26,0.00
2013-3-6,52,34,13,29,18,5,75,54,29,29.93,29.59,29,7,33,0.00
2013-3-7,55,43,32,23,15,10,45,33,20,29.90,29.68,27,10,29,0.00
2013-3-8,51,39,27,28,23,12,70,53,37,29.89,29.72,20,6,22,0.00
2013-3-9,46,36,23,26,19,9,73,51,31,30.13,29.78,33,10,35,0.00
2013-3-10,51,36,20,22,17,10,69,48,30,30.14,29.90,17,6,22,0.00
2013-3-11,49,38,25,26,22,17,74,53,32,30.17,29.89,37,9,38,0.00
2013-3-12,46,30,12,21,16,7,87,60,35,30.20,30.01,25,8,25,0.00
2013-3-13,63,44,25,30,23,15,70,46,26,30.10,30.02,29,9,31,0.00
2013-3-14,67,54,34,33,28,21,69,38,25,30.12,29.92,25,8,31,0.00
2013-3-15,70,56,41,28,23,18,53,29,17,29.93,29.80,34,12,36,0.00
2013-3-16,57,44,33,33,28,21,75,54,33,29.93,29.58,18,6,18,0.00
2013-3-17,40,34,24,31,20,9,90,61,28,29.78,29.36,42,10,42,0.01
2013-3-18,43,31,17,21,11,4,71,47,21,29.86,29.74,32,10,32,0.00
2013-3-19,42,32,19,21,14,0,78,49,29,30.14,29.86,21,5,25,0.00
2013-3-20,55,36,18,27,16,0,64,47,26,30.13,29.52,24,5,25,0.00
2013-3-21,46,36,27,30,23,14,91,62,32,29.80,29.46,34,11,34,0.01
2013-3-22,38,28,18,19,14,6,82,57,28,29.98,29.75,34,9,36,0.00
2013-3-23,36,24,15,15,11,4,82,61,28,30.12,29.98,21,5,24,0.00
2013-3-24,35,23,11,12,7,-3,75,52,30,30.14,30.08,30,9,32,0.00
2013-3-25,45,26,7,12,5,-3,73,43,22,30.15,29.95,33,9,33,0.00
2013-3-26,55,36,19,19,10,0,51,36,24,29.96,29.83,13,3,14,0.00
2013-3-27,60,42,19,27,17,4,61,38,24,29.96,29.87,18,5,18,0.00
2013-3-28,64,47,30,28,23,13,70,40,23,30.03,29.92,21,6,22,0.00
2013-3-29,62,47,34,39,27,15,89,49,31,30.10,29.96,23,4,26,0.11
2013-3-30,59,46,36,41,32,23,92,61,27,30.12,30.03,28,7,36,0.36
2013-3-31,63,45,28,30,25,20,81,50,26,30.03,29.94,32,7,39,0.00
2013-4-1,60,46,28,26,22,16,71,42,23,30.06,29.94,13,3,13,0.00
2013-4-2,67,47,25,28,21,13,67,39,21,30.02,29.88,17,6,21,0.00
2013-4-3,66,49,32,30,24,14,58,40,23,30.02,29.89,27,4,38,0.00
2013-4-4,71,55,38,35,31,24,64,43,24,30.00,29.75,22,3,24,0.00
2013-4-5,63,54,45,40,32,26,56,44,32,29.78,29.61,30,11,32,0.00
2013-4-6,63,50,39,32,29,26,61,45,28,29.81,29.69,36,8,38,0.00
2013-4-7,60,46,37,40,32,26,81,59,34,29.74,29.46,30,7,32,0.05
2013-4-8,40,25,18,36,20,13,89,81,68,30.06,29.57,30,17,38,0.00
2013-4-9,28,21,16,16,13,10,85,71,50,30.23,30.05,27,12,32,0.00
2013-4-10,40,21,10,19,11,5,83,68,40,30.17,29.92,21,7,23,0.00
2013-4-11,46,42,41,33,32,27,74,66,47,29.84,29.81,20,7,22,0.00
2013-4-12,52,42,32,33,25,19,86,54,33,29.95,29.67,32,8,33,0.00
2013-4-13,56,38,32,36,27,18,92,68,35,29.67,29.26,28,9,33,0.02
2013-4-14,43,34,26,25,20,16,75,59,38,29.78,29.51,36,8,38,0.03
2013-4-15,36,27,20,19,16,12,82,63,45,29.97,29.75,24,10,26,0.00
2013-4-16,32,26,22,19,16,12,82,65,46,30.10,29.88,26,10,28,0.00
2013-4-17,36,27,20,17,14,12,79,61,38,30.16,30.09,28,12,29,0.00
2013-4-18,52,35,16,21,16,10,81,51,25,30.14,30.01,24,6,24,0.00
2013-4-19,61,46,27,29,23,14,64,42,26,30.01,29.73,30,9,37,0.00
2013-4-20,60,47,33,39,30,22,76,53,28,29.90,29.75,31,4,36,0.05
2013-4-21,45,37,26,36,29,23,92,75,54,30.02,29.90,25,9,31,0.00
2013-4-22,34,26,21,23,20,14,91,77,51,30.28,30.02,21,11,29,0.14
2013-4-23,42,29,15,22,16,9,78,59,37,30.26,30.04,21,7,23,0.00
2013-4-24,55,40,24,28,22,17,79,53,27,30.16,29.91,25,7,25,0.00
2013-4-25,68,50,32,30,22,16,74,40,17,29.92,29.76,32,7,33,0.00
2013-4-26,72,58,40,30,25,20,50,30,14,30.10,29.92,24,7,28,0.00
2013-4-27,77,61,43,35,27,23,49,29,17,30.07,29.82,32,10,32,0.00
2013-4-28,64,57,53,39,33,26,58,40,31,29.93,29.74,27,8,28,0.00
2013-4-29,64,50,40,38,33,25,89,54,28,29.73,29.44,40,11,40,0.09
2013-4-30,47,38,31,29,22,14,83,56,28,30.09,29.67,31,11,33,0.00
2013-5-1,49,37,29,26,20,12,78,53,25,30.51,30.09,22,8,26,0.00
2013-5-2,59,43,25,30,22,18,90,50,21,30.57,30.25,27,8,27,0.00
2013-5-3,66,49,33,39,27,20,75,45,20,30.25,30.03,23,6,24,0.00
2013-5-4,53,46,42,47,41,39,100,83,69,30.17,30.10,18,8,25,0.22
2013-5-5,65,52,36,46,37,31,93,61,30,30.15,29.98,22,4,25,0.00
2013-5-6,73,57,40,41,35,31,83,49,23,30.00,29.83,19,4,20,0.00
2013-5-7,78,62,43,43,35,26,70,40,15,29.90,29.78,26,5,26,0.00
2013-5-8,73,60,49,42,36,32,62,42,25,30.06,29.90,24,10,28,0.00
2013-5-9,75,60,44,42,36,28,69,44,19,30.11,30.02,22,6,23,0.00
2013-5-10,76,59,46,43,37,32,65,45,22,30.29,30.10,35,7,39,0.00
2013-5-11,77,60,41,41,34,26,62,39,22,30.32,30.08,18,5,21,0.00
2013-5-12,85,68,48,44,39,36,66,38,19,30.10,29.94,16,5,16,0.00
2013-5-13,90,75,58,48,39,35,52,30,15,30.02,29.77,36,10,38,0.00
2013-5-14,83,70,58,47,41,33,56,37,19,29.89,29.75,24,8,28,0.00
2013-5-15,78,64,50,42,34,25,50,32,22,29.96,29.76,30,8,32,0.00
2013-5-16,69,59,52,48,44,41,79,59,40,29.83,29.72,26,4,28,0.03
2013-5-17,67,55,50,51,48,44,89,76,48,29.83,29.74,19,4,22,0.04
2013-5-18,57,52,48,50,47,45,94,85,70,29.89,29.80,15,6,20,0.36
2013-5-19,54,49,46,47,44,41,94,84,73,29.99,29.86,27,12,37,0.31
2013-5-20,58,50,43,48,44,38,90,80,64,30.09,29.97,29,10,31,0.09
2013-5-21,69,55,40,42,35,24,86,52,19,30.08,29.82,18,4,18,0.00
2013-5-22,68,55,41,50,43,38,90,67,37,29.86,29.72,21,5,23,0.06
2013-5-23,76,58,48,51,48,44,93,73,36,29.81,29.58,25,8,38,0.16
2013-5-24,71,60,49,50,36,22,91,46,18,29.91,29.70,33,11,33,0.03
2013-5-25,79,62,45,45,36,29,62,41,21,29.88,29.74,23,7,29,0.00
2013-5-26,74,62,50,48,43,40,72,53,32,29.92,29.75,18,5,24,0.00
2013-5-27,69,59,51,50,42,32,88,56,27,29.86,29.72,34,9,38,0.05
2013-5-28,74,58,49,47,42,36,83,59,27,29.75,29.59,27,7,28,0.02
2013-5-29,54,50,47,47,45,43,90,83,71,29.66,29.60,28,10,31,0.49
2013-5-30,59,53,49,46,42,35,87,68,46,29.78,29.60,26,8,26,0.01
2013-5-31,60,51,46,43,39,35,82,65,45,30.17,29.78,32,11,35,0.01
2013-6-1,68,57,43,46,41,38,85,57,34,30.22,30.02,17,5,24,0.00
2013-6-2,79,64,47,51,44,38,82,52,24,30.02,29.57,19,5,22,0.00
2013-6-3,69,57,46,51,38,31,84,52,27,29.98,29.63,34,15,39,0.00
2013-6-4,56,48,42,39,37,35,78,65,51,30.21,29.98,20,6,22,0.00
2013-6-5,71,56,36,42,37,32,89,54,28,30.20,29.98,15,3,15,0.00
2013-6-6,81,65,49,49,43,37,67,47,27,30.04,29.97,15,4,17,0.00
2013-6-7,86,68,50,51,47,43,83,51,24,29.99,29.67,29,5,31,0.00
2013-6-8,79,68,57,51,42,36,68,40,22,29.91,29.72,30,10,36,0.00
2013-6-9,89,70,50,47,43,40,77,42,20,29.94,29.66,24,8,25,0.00
2013-6-10,84,70,57,52,46,40,64,44,26,29.83,29.69,27,7,36,0.00
2013-6-11,79,66,52,57,50,45,83,59,34,29.98,29.72,33,6,44,0.00
2013-6-12,76,63,50,56,50,46,90,65,42,30.06,29.91,18,5,21,0.00
2013-6-13,87,67,52,58,49,43,83,56,22,29.94,29.68,36,8,40,0.06
2013-6-14,69,59,44,47,38,27,90,51,21,30.05,29.87,32,11,36,0.00
2013-6-15,79,63,44,41,34,29,67,36,17,30.06,29.90,24,6,24,0.00
2013-6-16,82,66,50,50,42,34,64,44,22,30.07,29.97,20,5,23,0.00
2013-6-17,84,70,55,52,47,39,72,47,25,30.11,29.94,12,4,15,0.00
2013-6-18,89,71,54,54,46,41,74,45,21,29.97,29.73,50,8,50,0.00
2013-6-19,92,72,53,53,41,31,72,37,13,29.75,29.42,41,12,41,0.00
2013-6-20,75,64,53,37,30,23,42,28,17,29.91,29.71,29,11,32,0.00
2013-6-21,74,62,51,47,41,33,63,46,30,29.95,29.89,22,8,25,0.00
2013-6-22,70,57,48,52,46,40,88,67,46,29.98,29.84,28,6,32,0.03
2013-6-23,80,62,43,48,41,36,86,52,21,29.97,29.69,24,7,25,0.00
2013-6-24,85,69,53,51,44,38,69,44,20,29.71,29.56,29,5,33,0.00
2013-6-25,82,72,65,47,44,40,48,36,23,29.88,29.64,29,11,29,0.00
2013-6-26,87,74,62,54,48,44,57,40,23,30.07,29.86,18,6,23,0.00
2013-6-27,92,74,56,57,51,47,79,48,24,30.19,30.08,21,6,22,0.00
2013-6-28,90,77,62,58,53,49,68,46,28,30.25,30.13,18,5,18,0.00
2013-6-29,92,75,59,59,54,50,78,52,25,30.19,30.02,24,5,28,0.00
2013-6-30,92,74,56,60,55,51,88,56,29,30.15,30.05,18,4,20,0.00
2013-7-1,89,77,61,61,55,50,79,49,30,30.20,30.12,24,5,25,0.00
2013-7-2,93,77,59,58,51,45,75,44,21,30.17,29.99,16,5,16,0.00
2013-7-3,92,77,60,59,50,45,65,42,23,29.99,29.85,30,7,33,0.00
2013-7-4,92,74,62,67,56,46,100,56,28,29.94,29.79,39,6,39,0.35
2013-7-5,80,68,59,68,58,53,100,74,44,29.87,29.76,25,5,26,0.04
2013-7-6,84,68,56,61,55,49,89,65,36,29.97,29.80,30,5,35,0.18
2013-7-7,88,69,53,61,54,49,92,64,28,29.99,29.84,31,6,33,0.03
2013-7-8,90,72,57,61,54,48,85,57,27,30.01,29.85,36,7,36,0.03
2013-7-9,86,72,60,59,54,49,86,56,31,30.14,30.00,14,5,17,0.00
2013-7-10,92,75,56,60,52,42,81,50,22,30.11,29.90,12,4,14,0.00
2013-7-11,93,75,60,62,51,39,68,44,19,29.91,29.73,21,4,25,0.00
2013-7-12,86,73,60,60,53,42,86,54,29,29.93,29.83,25,8,25,0.01
2013-7-13,90,71,55,58,50,40,80,49,22,30.11,29.87,25,7,33,0.00
2013-7-14,86,71,56,58,52,45,78,55,25,30.19,30.00,20,6,26,0.00
2013-7-15,96,77,59,60,51,40,77,47,17,30.04,29.85,13,3,14,0.00
2013-7-16,74,64,60,55,51,46,81,63,46,30.17,29.92,30,11,37,0.00
2013-7-17,89,70,57,62,56,51,87,65,36,30.18,30.01,22,5,24,0.13
2013-7-18,90,75,60,64,56,39,91,57,31,30.12,30.01,20,3,21,0.05
2013-7-19,92,74,55,56,48,42,75,43,23,30.11,29.92,16,4,17,0.00
2013-7-20,90,76,61,52,47,40,65,38,21,29.99,29.84,11,4,14,0.00
2013-7-21,92,75,56,54,45,37,70,39,16,29.89,29.79,20,5,24,0.00
2013-7-22,94,75,54,54,44,34,66,37,18,29.95,29.81,15,4,15,0.00
2013-7-23,91,76,60,50,45,39,59,35,18,30.09,29.95,15,4,17,0.00
2013-7-24,91,76,60,57,50,43,74,44,19,30.10,29.92,18,5,18,0.00
2013-7-25,87,73,60,54,50,45,72,47,27,30.14,29.92,31,8,49,0.00
2013-7-26,88,72,56,58,52,47,80,52,25,30.20,30.02,17,3,17,0.00
2013-7-27,84,73,57,57,51,46,78,49,28,30.03,29.86,15,4,15,0.00
2013-7-28,82,68,58,57,52,48,78,58,34,29.90,29.81,21,5,26,0.02
2013-7-29,78,64,52,56,52,48,89,68,42,30.01,29.89,14,4,16,0.00
2013-7-30,82,65,53,57,52,44,93,68,34,30.22,30.01,45,4,51,0.57
2013-7-31,84,68,52,58,52,40,94,63,22,30.25,30.06,15,4,17,0.09
2013-8-1,87,73,59,60,55,51,90,57,31,30.12,29.78,25,8,35,0.00
2013-8-3,83,74,64,59,57,52,79,56,38,30.10,29.86,16,6,23,0.00
2013-8-4,86,70,56,60,54,49,88,60,33,30.07,29.94,26,5,31,0.00
2013-8-5,88,72,57,59,52,44,87,54,26,30.02,29.82,29,6,38,0.00
2013-8-6,83,70,55,53,47,42,77,46,25,30.03,29.90,21,7,23,0.00
2013-8-7,87,70,54,53,47,43,75,48,25,30.03,29.88,22,4,22,0.00
2013-8-8,84,69,53,54,49,42,77,50,28,30.04,29.95,21,4,23,0.00
2013-8-9,73,65,58,58,53,50,81,66,49,30.13,30.04,14,4,16,0.00
2013-8-10,86,67,52,56,50,38,88,59,24,30.09,30.00,31,5,35,0.00
2013-8-11,86,68,53,52,48,43,79,51,27,30.10,30.01,33,5,35,0.00
2013-8-12,86,70,51,55,47,42,76,47,23,30.10,30.00,33,4,33,0.00
2013-8-13,84,67,53,54,49,44,80,54,28,30.14,30.04,34,6,38,0.06
2013-8-14,86,67,50,53,48,43,87,55,23,30.12,29.98,13,3,13,0.00
2013-8-15,90,72,56,53,47,41,72,45,19,30.08,29.97,15,4,15,0.00
2013-8-16,95,74,53,55,45,37,72,39,15,30.04,29.90,15,4,15,0.00
2013-8-17,93,75,54,52,44,32,58,35,19,30.03,29.90,13,4,14,0.00
2013-8-18,89,74,60,54,48,42,65,42,24,30.03,29.93,17,5,20,0.00
2013-8-19,94,76,55,55,48,44,73,41,19,30.03,29.87,12,4,13,0.00
2013-8-20,91,77,64,50,43,36,57,32,18,29.99,29.87,12,4,13,0.00
2013-8-21,87,74,65,51,46,38,53,38,23,30.09,29.91,19,6,24,0.00
2013-8-22,89,72,58,58,53,48,77,54,28,30.11,29.93,25,6,25,0.00
2013-8-23,91,74,58,57,53,48,85,52,25,29.96,29.80,22,6,22,0.00
2013-8-24,86,72,64,58,52,41,66,50,28,29.98,29.87,31,6,32,0.00
2013-8-25,89,74,60,56,49,42,70,44,20,30.05,29.92,19,5,21,0.00
2013-8-26,91,75,62,59,50,44,73,45,21,30.03,29.92,37,8,37,0.00
2013-8-27,88,73,60,56,52,47,75,52,26,30.06,29.96,28,4,28,0.00
2013-8-28,94,75,60,59,53,48,80,52,22,30.02,29.90,26,6,26,0.00
2013-8-29,91,71,57,62,53,48,85,58,25,30.14,30.01,35,6,41,0.00
2013-8-30,91,70,54,62,53,47,89,61,24,30.10,29.93,31,5,31,0.00
2013-8-31,83,71,61,50,46,42,57,42,28,30.10,29.96,18,6,24,0.00
2013-9-1,89,69,48,49,45,40,77,46,20,30.10,29.94,22,4,22,0.00
2013-9-2,79,68,55,61,49,39,74,52,30,29.99,29.91,16,4,16,0.00
2013-9-3,91,75,62,60,56,50,83,55,28,30.05,29.96,13,3,13,0.00
2013-9-4,89,73,59,63,58,52,93,62,33,30.14,30.04,38,7,40,0.00
2013-9-5,93,76,58,61,56,51,83,54,27,30.11,29.93,33,6,46,0.00
2013-9-6,86,71,59,63,57,49,86,63,30,30.09,29.95,55,7,55,0.52
2013-9-7,87,71,59,65,57,49,100,66,28,30.08,29.93,29,5,35,0.04
2013-9-8,77,65,58,61,55,51,87,72,50,30.04,29.83,25,4,25,0.02
2013-9-9,76,64,53,54,48,44,88,59,35,30.03,29.87,23,4,25,0.00
2013-9-10,80,66,52,51,48,44,77,55,31,30.12,30.03,15,4,20,0.00
2013-9-11,83,67,50,52,46,41,82,52,23,30.23,30.10,17,4,17,0.00
2013-9-12,77,65,54,52,49,44,75,57,38,30.27,30.07,24,6,25,0.00
2013-9-13,69,60,53,58,53,48,89,79,56,30.07,29.85,20,3,20,0.03
2013-9-14,61,58,56,57,55,53,93,90,83,30.05,29.86,20,5,23,0.68
2013-9-15,69,62,55,59,56,52,92,82,68,30.16,30.02,15,4,16,0.01
2013-9-16,80,64,50,59,53,48,94,69,39,30.02,29.82,22,6,22,0.00
2013-9-17,78,62,53,62,51,47,100,71,34,29.90,29.62,24,6,25,0.17
2013-9-18,70,57,49,51,44,35,93,65,34,29.95,29.66,32,10,37,0.03
2013-9-19,65,53,39,44,40,35,90,63,41,30.13,29.94,13,2,15,0.00
2013-9-20,72,54,38,45,39,35,91,61,26,30.10,29.81,23,5,23,0.00
2013-9-21,84,61,40,47,40,35,86,51,19,29.81,29.56,14,4,16,0.00
2013-9-22,74,62,54,48,42,38,65,49,33,29.59,29.48,22,4,29,0.00
2013-9-23,71,60,46,44,37,32,75,45,25,29.90,29.59,31,11,35,0.00
2013-9-24,76,60,45,42,37,33,73,44,22,29.92,29.59,32,9,32,0.00
2013-9-25,55,48,45,50,43,38,100,83,54,29.68,29.43,17,4,17,0.46
2013-9-26,51,44,39,43,38,35,93,81,61,29.90,29.64,20,7,26,0.00
2013-9-27,45,40,36,40,36,34,93,87,73,29.93,29.86,19,7,23,0.12
2013-9-28,63,47,36,43,37,34,94,73,40,29.95,29.89,29,7,29,0.00
2013-9-29,67,62,54,46,39,36,63,43,35,29.71,29.63,41,20,47,0.00
2013-9-30,72,54,42,47,40,34,82,62,34,29.83,29.56,40,9,40,0.00
2013-10-1,68,52,35,41,36,30,85,57,33,29.90,29.80,15,3,15,0.00
2013-10-2,60,49,41,41,36,33,86,61,38,30.03,29.84,19,5,26,0.02
2013-10-3,45,37,32,42,35,30,95,92,86,30.12,29.78,24,10,35,0.12
2013-10-4,37,32,28,31,29,23,96,87,73,30.35,30.12,20,9,29,0.12
2013-10-5,45,34,22,36,28,19,90,80,65,30.28,30.20,17,4,17,0.00
2013-10-6,60,43,30,44,35,27,90,77,52,30.23,30.06,21,4,22,0.00
2013-10-7,63,46,33,48,39,31,94,77,50,30.06,29.71,17,3,17,0.00
2013-10-8,60,48,40,41,37,33,89,67,45,29.88,29.66,20,6,23,0.00
2013-10-9,51,43,35,40,35,31,91,75,60,29.99,29.84,13,2,16,0.00
2013-10-10,50,41,32,44,38,30,100,89,77,29.84,29.62,11,1,21,0.09
2013-10-11,54,44,33,43,32,25,92,66,35,29.99,29.66,26,10,31,0.01
2013-10-12,53,40,27,37,31,24,92,74,47,30.04,29.96,19,3,21,0.00
2013-10-13,48,40,35,38,34,31,90,80,65,30.06,29.98,16,6,25,0.02
2013-10-14,38,36,34,34,32,30,92,86,79,30.31,30.00,25,11,35,0.00
2013-10-15,48,38,28,31,28,24,88,69,44,30.31,30.10,18,5,18,0.00
2013-10-16,52,36,24,34,28,22,92,75,47,30.10,29.96,13,4,17,0.00
2013-10-17,41,36,34,35,32,30,91,84,66,30.12,30.05,29,5,32,0.02
2013-10-18,53,38,29,32,28,22,86,69,31,30.16,29.99,19,6,22,0.00
2013-10-19,59,42,26,40,30,22,88,67,39,29.99,29.83,21,4,22,0.00
2013-10-20,53,44,38,40,34,31,88,71,43,30.03,29.91,24,6,32,0.02
2013-10-21,57,45,34,42,35,31,89,71,48,30.08,30.01,11,2,13,0.00
2013-10-22,63,47,33,42,36,29,89,68,41,30.12,30.02,11,4,14,0.00
2013-10-23,63,47,32,40,35,28,89,65,37,30.16,30.07,11,2,11,0.00
2013-10-24,59,44,32,42,36,30,92,74,48,30.20,30.09,12,2,12,0.00
2013-10-25,66,45,31,41,34,28,93,69,32,30.20,30.09,17,2,17,0.00
2013-10-26,65,46,31,40,34,27,88,65,37,30.23,29.98,18,4,18,0.00
2013-10-27,63,45,31,39,32,27,86,63,30,29.98,29.73,23,5,32,0.00
2013-10-28,34,28,23,30,25,20,92,87,81,30.01,29.89,29,12,39,0.00
2013-10-29,34,28,23,30,24,20,92,84,75,30.00,29.81,14,3,14,0.01
2013-10-30,39,33,28,36,30,25,95,91,83,29.82,29.73,10,2,10,0.02
2013-10-31,55,39,26,39,31,24,96,76,39,29.90,29.68,36,5,45,0.01
2013-11-1,55,46,39,28,25,24,60,46,31,30.11,29.90,18,9,23,0.00
2013-11-2,54,39,27,33,27,22,86,65,40,30.06,29.52,21,5,21,0.00
2013-11-3,45,37,26,34,24,14,81,61,31,29.81,29.50,23,6,26,0.00
2013-11-4,42,31,23,25,18,14,85,61,35,29.98,29.81,13,3,15,0.00
2013-11-5,42,30,16,27,16,10,92,61,29,30.05,29.94,28,8,36,0.00
2013-11-6,49,36,26,24,20,16,70,52,34,30.23,29.99,26,5,26,0.00
2013-11-7,46,33,22,28,23,16,83,67,46,30.23,29.66,18,4,18,0.00
2013-11-8,52,43,30,33,24,20,89,50,30,29.93,29.61,38,11,40,0.00
2013-11-9,51,40,29,27,24,21,75,54,37,30.13,29.93,23,4,26,0.00
2013-11-10,45,35,28,32,27,23,87,72,59,30.13,30.03,15,2,17,0.00
2013-11-11,40,31,26,29,26,22,92,81,62,30.45,30.13,14,4,20,0.00
2013-11-12,56,36,21,35,27,19,93,72,42,30.46,30.20,21,4,21,0.00
2013-11-13,54,40,29,35,30,23,84,68,46,30.21,29.97,21,3,22,0.00
2013-11-14,50,36,27,35,27,21,83,71,47,30.06,29.63,14,3,15,0.00
2013-11-15,50,36,22,30,20,16,88,56,29,29.63,29.29,26,9,28,0.00
2013-11-16,49,38,31,27,21,18,81,51,32,29.42,29.17,30,10,37,0.00
2013-11-17,47,36,29,26,15,12,81,43,28,29.90,29.42,32,9,37,0.00
2013-11-18,54,38,26,24,18,13,63,45,27,29.96,29.73,24,6,24,0.00
2013-11-19,58,43,28,56,26,16,100,51,34,29.72,29.55,30,8,35,0.01
2013-11-20,47,26,11,28,17,7,86,71,46,30.20,29.62,25,10,31,0.05
2013-11-21,22,11,2,12,5,-2,89,77,59,30.45,30.18,10,2,13,0.00
2013-11-22,26,9,-2,13,3,-6,87,76,52,30.52,30.41,7,1,8,0.00
2013-11-23,27,12,1,16,6,-3,86,76,60,30.52,30.17,9,1,9,0.00
2013-11-24,34,18,5,19,10,1,93,73,50,30.17,29.98,11,1,10,0.00
2013-11-25,44,28,15,28,20,10,92,73,50,30.29,30.08,10,1,12,0.00
2013-11-26,42,29,21,28,22,17,86,76,55,30.31,30.09,10,2,10,0.00
2013-11-27,47,32,24,30,24,19,87,75,50,30.09,29.98,8,2,9,0.00
2013-11-28,41,28,18,30,23,14,92,81,65,30.07,29.96,9,1,10,0.00
2013-11-29,48,35,24,33,27,21,92,74,52,30.07,29.98,22,3,25,0.00
2013-11-30,49,42,29,32,28,23,81,58,48,30.10,30.00,26,8,26,0.00
2013-12-1,45,38,32,32,29,25,79,70,56,30.00,29.64,19,4,23,0.00
2013-12-2,56,37,21,38,30,19,93,76,36,29.64,29.35,26,6,36,0.02
2013-12-3,21,11,5,19,8,1,92,87,84,29.92,29.51,25,15,31,0.01
2013-12-4,6,2,-4,1,-3,-9,84,82,80,30.03,29.91,18,7,21,0.00
2013-12-5,5,-4,-10,0,-8,-14,82,79,76,30.07,29.99,9,2,10,0.00
2013-12-6,-2,-8,-12,-8,-13,-18,82,77,73,30.19,30.07,12,3,14,0.00
2013-12-7,-2,-10,-16,-9,-16,-21,100,76,72,30.16,29.84,11,2,13,0.00
2013-12-8,1,-7,-16,-3,-12,-21,82,78,72,30.01,29.81,12,2,12,0.00
2013-12-9,21,5,-13,9,-2,-18,92,71,53,30.00,29.91,46,11,46,0.00
2013-12-10,29,19,9,17,8,1,88,64,41,30.17,29.84,38,12,41,0.00
2013-12-11,21,12,4,13,7,1,88,81,70,30.20,30.14,13,2,13,0.00
2013-12-12,30,18,11,19,11,6,81,75,60,30.17,29.87,10,2,12,0.00
2013-12-13,38,26,13,25,19,8,92,75,56,30.12,29.84,19,2,21,0.00
2013-12-14,41,28,13,26,19,10,89,70,46,30.14,30.02,30,8,35,0.00
2013-12-15,48,42,26,26,23,19,74,48,38,30.03,29.92,43,23,45,0.00
2013-12-16,51,46,41,22,20,19,43,36,30,30.15,29.95,39,22,40,0.00
2013-12-17,48,39,29,27,23,19,73,53,36,30.16,29.81,40,8,44,0.00
2013-12-18,57,45,28,24,21,18,85,43,22,29.80,29.59,31,10,33,0.00
2013-12-19,28,13,4,25,8,0,91,79,69,29.93,29.60,37,13,46,0.00
2013-12-20,20,12,3,12,6,0,94,78,65,29.84,29.46,18,4,18,0.00
2013-12-21,29,24,17,22,16,9,87,70,46,29.86,29.44,32,5,32,0.00
2013-12-22,23,18,11,20,14,6,90,84,77,30.15,29.84,17,4,22,0.00
2013-12-23,27,18,7,20,13,4,100,83,74,30.15,29.82,17,4,17,0.00
2013-12-24,41,31,19,31,22,14,91,70,43,30.24,29.80,27,7,33,0.00
2013-12-25,31,20,11,18,14,8,87,77,58,30.28,30.10,18,3,20,0.00
2013-12-26,38,25,18,20,16,13,85,70,48,30.19,30.09,17,4,17,0.00
2013-12-27,41,28,20,26,19,15,86,72,52,30.16,29.85,11,2,11,0.00
2013-12-28,47,25,15,25,16,9,92,68,31,30.23,29.77,37,8,37,0.00
2013-12-29,35,19,8,18,12,3,92,74,49,30.22,29.84,20,4,26,0.00
2013-12-30,37,28,19,22,19,13,83,67,48,30.11,29.88,26,4,26,0.00
2013-12-31,44,35,27,31,24,20,89,66,45,29.95,29.80,32,8,37,0.00
2014-1-1,37,28,18,29,23,15,92,83,65,30.23,29.94,18,4,22,0.00
2014-1-2,29,20,13,23,16,10,89,83,67,30.14,29.81,13,3,14,0.00